          30  20 57.37  +21 04.6   0.500  1.435    45.6 / 275  11.6   77  .76

     Aug.  4  20 41.11  +21 23.5   0.573  1.504    34.7 / 269  12.1   42 1.00

NAKANO

         **** Don't distribute anyone except personal use only ****

                (C) Copyright 2001 OAA/ComputingSection

write mail from CFAD0::NAKANO on 2001-03-25 05:25:04(JST).

 



    C/2001 A2 (LINEAR) 

Epoch 2001 May  11.0 TT = JDT 2452040.5  

T 2001 May  24.52304 TT                                 Nakano

q   0.7790401            (2000.0)            P               Q

z  +0.0006886      Peri.  295.32533     -0.47634317     +0.69520172

 +/-0.0000775      Node   295.12718     -0.42467290     -0.71800645

e   0.9994635      Incl.   36.48346     -0.76990266     -0.03407795

From 149 observations 2001 Jan. 3-Feb. 26, mean residual 0".67.



NAKANO

         **** Don't distribute anyone except personal use only ****

                (C) Copyright 2001 OAA/ComputingSection

write mail from CFAD0::NAKANO on 2001-03-04 02:02:19(JST).

 

    C/2001 A2 (LINEAR) 

T 2001 May  24.51955 TT                                 Nakano

q   0.7789911            (2000.0)            P               Q

                   Peri.  295.31383     -0.47616639     +0.69505403

                   Node   295.13276     -0.42431681     -0.71814996

e   1.0            Incl.   36.51272     -0.77020830     -0.03406645

From 114 observations 2001 Jan. 3-Feb. 2.



NAKANO

         **** Don't distribute anyone except personal use only ****

                (C) Copyright 2001 OAA/ComputingSection

write mail from CFAD0::NAKANO on 2001-02-06 01:56:22(JST).

 







    C/2001 A2 (LINEAR) 

T 2001 May  24.57509 TT                                 Nakano

q   0.7793229            (2000.0)            P               Q

                   Peri.  295.30461     -0.47598738     +0.69493133

                   Node   295.13799     -0.42400836     -0.71827004

e   1.0            Incl.   36.53946     -0.77048875     -0.03403819

From 97 observations 2001 Jan. 3-21.



NAKANO

         **** Don't distribute anyone except personal use only ****

                (C) Copyright 2001 OAA/ComputingSection

write mail from CFAD0::NAKANO on 2001-01-25 05:13:54(JST).

 

◎C/2001 A2の軌道と予報位置です

 福知山(吉見政義),綾部(大槻直樹),上尾(門田健一)で1月17日に

捕らえられました.それぞれのCCD 全光度は,17.5等,17.3等,17.1等でし

た.この軌道では,6月下旬に地球に0.24AUまで近づき,9等級まで明るく

なります.H10=13等ですが,もし,H10= 5等ならば,1等級まで明るくなっ

たのですが...



    C/2001 A2 (LINEAR) 

T 2001 May 24.60333 TT                                  Nakano

q   0.7794963            (2000.0)            P               Q

                   Peri.  295.29971     -0.47590289     +0.69486808

                   Node   295.14060     -0.42385183     -0.71833167

e   1.0            Incl.   36.55266     -0.77062706     -0.03402883

From 50 observations 2001 Jan. 3-17.

 

Date/        TT  R.A.(2000) Decl.     Delta   r     Daily motion  Mag.  Moon Age

              h    h  m       。  ,                      ,  / PA 。  m1      。

2001 Jan. 15 14  08 20.56  +12 14.5   1.310  2.282    29.1 / 247  16.7   70  .60

          16 14  08 18.73  +12 03.0   1.295  2.269    29.8 / 247  16.6   84  .49

          17 14  08 16.87  +11 51.3   1.280  2.256    30.5 / 247  16.6   97  .39

          18 14  08 14.96  +11 39.4   1.266  2.243    31.1 / 247  16.5  110  .29

          19 14  08 13.00  +11 27.3   1.252  2.230    31.8 / 247  16.5  123  .21

          20 14  08 11.01  +11 15.1   1.239  2.217    32.5 / 247  16.4  135  .14

          21 14  08 08.97  +11 02.6   1.226  2.203    33.1 / 248  16.4  147  .08

          22 14  08 06.90  +10 50.0   1.213  2.190    33.7 / 248  16.3  158  .03

          23 14  08 04.78  +10 37.1   1.201  2.177    34.3 / 248  16.3  167  .01

          24 14  08 02.63  +10 24.0   1.189  2.164    34.8 / 248  16.2  168  .00

          25 14  08 00.45  +10 10.8   1.177  2.150    35.4 / 248  16.2  159  .01

          26 14  07 58.23  +09 57.4   1.165  2.137    35.9 / 248  16.1  148  .04

          27 14  07 55.99  +09 43.7   1.155  2.124    36.4 / 248  16.1  136  .08

          28 14  07 53.71  +09 29.9   1.144  2.111    36.8 / 248  16.0  124  .14

          29 14  07 51.41  +09 15.9   1.134  2.097    37.3 / 248  16.0  112  .21

          30 14  07 49.08  +09 01.7   1.124  2.084    37.7 / 248  15.9   99  .30

          31 14  07 46.73  +08 47.4   1.114  2.071    38.0 / 248  15.9   86  .40

     Feb.  1 14  07 44.36  +08 32.8   1.105  2.057    38.3 / 248  15.8   73  .50

           2 14  07 41.97  +08 18.2   1.096  2.044    38.6 / 247  15.8   60  .61

           3 14  07 39.57  +08 03.3   1.088  2.031    38.9 / 247  15.8   46  .71

           4 14  07 37.16  +07 48.3   1.080  2.017    39.1 / 247  15.7   33  .81

           5 14  07 34.73  +07 33.2   1.072  2.004    39.3 / 247  15.7   20  .89

           6 14  07 32.30  +07 17.9   1.064  1.990    39.4 / 247  15.6   15  .96

           7 14  07 29.86  +07 02.5   1.057  1.977    39.5 / 247  15.6   23  .99

           8 14  07 27.42  +06 47.0   1.050  1.963    39.6 / 247  15.5   36 1.00

           9 14  07 24.98  +06 31.4   1.044  1.950    39.6 / 247  15.5   51  .97

          10 14  07 22.54  +06 15.7   1.038  1.936    39.6 / 246  15.5   65  .92

          11 14  07 20.11  +05 59.9   1.032  1.923    39.5 / 246  15.4   80  .85

          12 14  07 17.69  +05 44.0   1.026  1.909    39.4 / 246  15.4   94  .76

          13 14  07 15.27  +05 28.0   1.021  1.896    39.3 / 246  15.3  107  .66

          14 14  07 12.87  +05 12.0   1.016  1.882    39.1 / 246  15.3  120  .56

          15 14  07 10.49  +04 56.0   1.012  1.869    38.8 / 246  15.2  132  .46

NAKANO

         **** Don't distribute anyone except personal use only ****

                (C) Copyright 2001 OAA/ComputingSection

write mail from CFAD0::NAKANO on 2001-01-18 04:34:54(JST).



戻ります。